TimeEDT,TemperatureF,Dew PointF,Humidity,Sea Level PressureIn,VisibilityMPH,Wind Direction,Wind SpeedMPH,Gust SpeedMPH,PrecipitationIn,Events,Conditions,WindDirDegrees,DateUTC
12:52 AM,53.1,39.9,61,30.05,10.0,North,4.6,-,N/A,,Clear,350,2012-09-19 04:52:00
1:52 AM,46.9,39.9,77,30.07,10.0,Calm,Calm,-,N/A,,Clear,0,2012-09-19 05:52:00
2:52 AM,44.6,39.2,81,30.08,10.0,Calm,Calm,-,N/A,,Clear,0,2012-09-19 06:52:00
3:52 AM,45.0,41.0,86,30.07,10.0,Calm,Calm,-,N/A,,Clear,0,2012-09-19 07:52:00
4:52 AM,43.0,39.0,86,30.08,10.0,Calm,Calm,-,N/A,,Clear,0,2012-09-19 08:52:00
5:52 AM,43.0,39.9,89,30.11,10.0,Calm,Calm,-,N/A,,Clear,0,2012-09-19 09:52:00
6:52 AM,42.8,39.2,87,30.13,10.0,Calm,Calm,-,N/A,,Clear,0,2012-09-19 10:52:00
7:52 AM,43.0,39.9,89,30.15,10.0,Calm,Calm,-,N/A,,Clear,0,2012-09-19 11:52:00
8:52 AM,48.9,45.0,86,30.16,10.0,Calm,Calm,-,N/A,,Clear,0,2012-09-19 12:52:00
9:52 AM,54.0,42.1,64,30.17,10.0,South,3.5,-,N/A,,Clear,170,2012-09-19 13:52:00
10:52 AM,57.9,39.0,49,30.18,10.0,Variable,3.5,-,N/A,,Clear,0,2012-09-19 14:52:00
11:52 AM,62.1,35.1,37,30.18,10.0,Calm,Calm,-,N/A,,Partly Cloudy,0,2012-09-19 15:52:00
12:52 PM,63.0,33.1,33,30.17,10.0,Variable,3.5,-,N/A,,Partly Cloudy,0,2012-09-19 16:52:00
1:52 PM,64.0,35.1,34,30.16,10.0,SSE,8.1,-,N/A,,Clear,160,2012-09-19 17:52:00
2:52 PM,64.9,34.0,32,30.15,10.0,SSW,8.1,-,N/A,,Partly Cloudy,210,2012-09-19 18:52:00
3:52 PM,66.0,34.0,30,30.13,10.0,SE,3.5,-,N/A,,Partly Cloudy,140,2012-09-19 19:52:00
4:52 PM,66.9,35.1,31,30.12,10.0,Variable,5.8,-,N/A,,Clear,0,2012-09-19 20:52:00
5:52 PM,66.0,36.0,33,30.11,10.0,Calm,Calm,-,N/A,,Clear,0,2012-09-19 21:52:00
6:52 PM,63.0,37.9,40,30.10,10.0,South,5.8,-,N/A,,Clear,190,2012-09-19 22:52:00
7:52 PM,57.9,39.9,51,30.09,10.0,SSE,5.8,-,N/A,,Partly Cloudy,160,2012-09-19 23:52:00
8:52 PM,55.4,39.2,54,30.10,10.0,SSE,5.8,-,N/A,,Partly Cloudy,150,2012-09-20 00:52:00
9:52 PM,54.0,39.0,57,30.09,10.0,SSE,6.9,-,N/A,,Clear,150,2012-09-20 01:52:00
10:52 PM,54.0,39.0,57,30.09,10.0,South,5.8,-,N/A,,Clear,180,2012-09-20 02:52:00
11:52 PM,52.0,39.0,61,30.09,10.0,South,5.8,-,N/A,,Clear,190,2012-09-20 03:52:00